Location: *
(58.4167°N, 22.5000°E)
Time: 05:44:21
(UTC+00:00)

NOSS 3-3 (A) - Pass Details

Date: 22 September 2019
Orbit: 849 x 1363 km, 63.4° (Epoch: 08 October)

Event Time Altitude Azimuth Distance (km) Brightness Sun altitude
Rises 22:38:30 0° 302° (WNW) 3,830 7.4 -31.4°
Reaches altitude 10° 22:41:00 10° 302° (WNW) 2,943 6.8 -31.3°
Maximum altitude 22:48:07 85° 215° (SW) 1,204 4.2 -31.2°
Enters shadow 22:48:28 81° 159° (SSE) 1,217 4.2 -31.2°
